Location: Pel�-Koumbol�
(14.9505°N, 3.0798°W)
Time: 07:52:52
(UTC+00:00)

Cosmos 1825 - Pass Details

Date: 17 February 2020
Orbit: 504 x 507 km, 82.5° (Epoch: 06 April)

Event Time Altitude Azimuth Distance (km) Brightness Sun altitude
Exits shadow 05:49:42 18° 276° (W) 1,300 3.6 -11.8°
Maximum altitude 05:50:03 18° 269° (W) 1,291 3.6 -11.7°
Drops below altitude 10° 05:52:39 10° 225° (SW) 1,714 4.5 -11.1°
Sets 05:55:17 0° 205° (SSW) 2,598 5.6 -10.5°
